sat.trackr.live / text

‹ back to catalog

STARLINK-35321

NORAD 66074 · 2025-235S

PAYLOAD ACTIVE UNKNOWN

§ Identity

Operator
Country
US
Launch date
2025-10-19
Launch site
AFETR
Launch vehicle
Mass (kg)
RCS (m²)

Purposes: comms

External: N2YO · Heavens-Above · Gunter

§ Orbital elements

Epoch: 2026-09-20T21:57:56.631456Z

Period
93.85 min
Inclination
53.1590°
Eccentricity
0.0000829
Mean motion
15.34417123 rev/d
Perigee alt
462.1 km
Apogee alt
463.2 km
Semi-major
6,840.8 km
B*
4.6579e-4
RAAN
57.6008°
Arg perigee
89.8760°
Mean anomaly
270.2337°
Rev number
5,282

§ Raw data

STARLINK-353211 66074U 25235S   26263.91523879  .00015402  00000+0  46579-3 0  99982 66074  53.1590  57.6008 0000829  89.8760 270.2337 15.34417123 52823

JSON: /api/v1/satellites/66074 · /tle

For live sub-satellite position, see the globe view (requires WebGL).

§ Visibility from observer

Set your observer location to see the next 7 days of passes ≥ 10°. The values pass through the URL so the page stays shareable.

No JS? Fill the form by hand. The geolocation button needs JavaScript.